Simultaneous Nadir Overpasses (SNOs) Predictions

Prediction of SNOs near US between AQUA and NPP Satellite Orbit:

Table of predicted SNOs near US for the next 10.0 days since TLE Epoch: 7/12/2019
Index Date (AQUA) Time (AQUA) AQUA Lat,Lon Date (NPP) Time (NPP) NPP Lat,Lon Distance(km) Time Diff (sec)
1 07/14/2019 19:06:16 49.97, -92.51 07/14/2019 19:01:29 49.66, -94.47 144.63 287
2 07/14/2019 20:45:09 49.97,-117.23 07/14/2019 20:42:57 49.54,-119.79 189.93 132
3 07/17/2019 08:34:57 20.04,-101.85 07/17/2019 08:26:37 18.73,-102.41 156.78 500
4 07/17/2019 10:11:42 27.75,-124.71 07/17/2019 10:05:30 27.93,-125.45 75.17 372
5 07/20/2019 07:18:38 49.92, -75.96 07/20/2019 07:20:29 50.38, -78.20 167.47 111
6 07/20/2019 08:57:30 49.93,-100.68 07/20/2019 09:01:56 50.49,-103.53 211.92 266
7 07/22/2019 18:16:45 49.95, -80.13 07/22/2019 18:10:46 49.68, -81.79 122.81 359




NCC Satellite Simultaneous Nadir Overpasses (SNOs) Prediction Service
